This demonstration page uses our WeatherBlox Daily Observations layout. Learn more.

40.92945, -100.16068

Hourly Observations for December 26, 2019

Temp ( °F °C ) Dew Point ( °F °C ) Humidity (%) Winds ( mph kmh ) Pressure ( in mb ) Visibility ( mi km ) Precip ( " mm )
12:15 am 00:15 Cloudy 28 -2.1 26 -3.2 92 92 NNW 20 31 29.97 1015 10 16.0934 0 0
12:35 am 00:35 Cloudy 28 -2 26 -3.1 92 92 NNW 15 24 29.97 1015 10 16.0934 0 0
12:55 am 00:55 Cloudy 28 -2.1 26 -3.4 91 91 NNW 14 22 29.98 1015 10 16.0934 0 0
1:15 am 01:15 Cloudy 28 -2.1 26 -3.4 91 91 NNW 9 15 30 1016 10 16.0934 0 0
1:35 am 01:35 Cloudy 28 -2.1 26 -3.5 90 90 NNW 10 17 30.01 1016 10 16.0934 0 0
1:55 am 01:55 Cloudy 28 -2.2 25 -3.7 90 90 N 8 13 30.02 1017 10 16.0934 0 0
2:15 am 02:15 Cloudy 28 -2.1 26 -3.6 90 90 NNW 7 11 30.02 1017 10 16.0934 0 0
2:35 am 02:35 Cloudy 28 -2.2 25 -3.7 90 90 N 8 13 30.02 1017 10 16.0934 0 0
2:55 am 02:55 Cloudy 28 -2.2 26 -3.6 90 90 N 8 13 30.04 1017 10 16.0934 0 0
3:15 am 03:15 Cloudy 28 -2.2 25 -3.7 90 90 N 7 11 30.05 1018 10 16.0934 0 0
3:35 am 03:35 Cloudy 28 -2.2 26 -3.6 90 90 N 8 13 30.05 1018 10 16.0934 0 0
3:55 am 03:55 Cloudy 28 -2.1 26 -3.5 90 90 N 5 7 30.05 1018 10 16.0934 0 0
4:15 am 04:15 Cloudy 28 -2.2 26 -3.5 91 91 N 7 11 30.06 1018 10 16.0934 0 0
4:35 am 04:35 Cloudy 28 -2.1 26 -3.4 91 91 N 8 13 30.05 1018 10 16.0934 0 0
4:55 am 04:55 Cloudy 28 -2 26 -3.2 92 92 N 8 13 30.06 1018 10 16.0934 0 0
5:15 am 05:15 Mostly Cloudy 28 -2.4 26 -3.5 92 92 N 3 6 30.07 1018 10 16.0934 0 0
5:35 am 05:35 Partly Cloudy 26 -3.4 25 -4 96 96 NW 3 6 30.1 1019 10 16.0934 0 0
5:55 am 05:55 Partly Cloudy 26 -3.6 25 -4.1 96 96 NNW 8 13 30.11 1020 10 16.0934 0 0
6:15 am 06:15 Partly Cloudy 25 -3.9 24 -4.5 96 96 NNW 5 7 30.13 1020 10 16.0934 0 0
6:35 am 06:35 Clear 24 -4.5 23 -5.2 95 95 NW 8 13 30.14 1021 10 16.0934 0 0
6:55 am 06:55 Partly Cloudy 24 -4.2 23 -5.1 94 94 NNW 8 13 30.14 1021 10 16.0934 0 0
7:15 am 07:15 Mostly Cloudy 26 -3.3 24 -4.5 92 92 NNW 3 6 30.14 1021 10 16.0934 0 0
7:35 am 07:35 Cloudy 26 -3.2 24 -4.4 92 92 NW 7 11 30.14 1021 10 16.0934 0 0
7:55 am 07:55 Partly Cloudy 26 -3.6 24 -4.7 92 92 NW 7 11 30.14 1021 10 16.0934 0 0
8:15 am 08:15 Sunny 24 -4.2 23 -5.1 94 94 WNW 6 9 30.16 1021 10 16.0934 0 0
8:35 am 08:35 Partly Cloudy 24 -4.2 23 -5.1 94 94 WNW 6 9 30.16 1021 10 16.0934 0 0
8:55 am 08:55 Sunny 25 -3.7 23 -5 91 91 Calm 30.17 1022 10 16.0934 0 0
9:15 am 09:15 Sunny 27 -2.9 24 -4.4 90 90 WNW 5 7 30.17 1022 10 16.0934 0 0
9:35 am 09:35 Sunny 28 -2.2 25 -4 88 88 WNW 5 7 30.17 1022 10 16.0934 0 0
9:55 am 09:55 Sunny 29 -1.7 25 -3.7 86 86 WNW 5 7 30.17 1022 10 16.0934 0 0
10:15 am 10:15 Partly Cloudy 29 -1.4 26 -3.6 85 85 W 5 7 30.18 1022 10 16.0934 0 0
10:35 am 10:35 Partly Cloudy 31 -0.8 26 -3.2 84 84 N 3 6 30.19 1022 10 16.0934 0 0
10:55 am 10:55 Sunny 32 0 27 -2.7 82 82 NW 6 9 30.19 1022 10 16.0934 0 0
11:15 am 11:15 Mostly Cloudy 32 0 27 -2.7 82 82 NW 7 11 30.18 1022 10 16.0934 0 0
11:35 am 11:35 Partly Cloudy 33 0.3 28 -2.4 82 82 WNW 3 6 30.17 1022 10 16.0934 0 0
11:55 am 11:55 Sunny 34 1.2 28 -2 79 79 Calm 30.16 1021 10 16.0934 0 0
12:15 pm 12:15 Sunny 36 2.1 29 -1.9 75 75 NW 9 15 30.15 1021 10 16.0934 0 0
12:35 pm 12:35 Sunny 36 2.3 29 -1.5 76 76 NW 12 19 30.13 1020 10 16.0934 0 0
12:55 pm 12:55 Sunny 37 3 30 -1 75 75 WNW 8 13 30.13 1020 10 16.0934 0 0
1:15 pm 13:15 Sunny 38 3.5 30 -1.2 72 72 NNW 12 19 30.12 1020 10 16.0934 0 0
1:35 pm 13:35 Sunny 39 3.9 30 -1 71 71 NW 10 17 30.12 1020 10 16.0934 0 0
1:55 pm 13:55 Partly Cloudy 40 4.2 30 -0.9 70 70 NW 9 15 30.12 1020 10 16.0934 0 0
2:15 pm 14:15 Partly Cloudy 40 4.7 31 -0.5 69 69 NW 12 19 30.11 1020 10 16.0934 0 0
2:35 pm 14:35 Partly Cloudy 40 4.5 31 -0.7 69 69 NW 9 15 30.11 1020 10 16.0934 0 0
2:55 pm 14:55 Cloudy 41 4.9 31 -0.3 69 69 NNW 9 15 30.12 1020 10 16.0934 0 0
3:15 pm 15:15 Cloudy 40 4.4 31 -0.8 69 69 NNW 8 13 30.12 1020 10 16.0934 0 0
3:35 pm 15:35 Cloudy 38 3.5 30 -1.1 72 72 NNW 12 19 30.13 1020 10 16.0934 0 0
3:55 pm 15:55 Mostly Cloudy 38 3.2 30 -1 74 74 NNW 7 11 30.15 1021 10 16.0934 0 0
4:15 pm 16:15 Cloudy 38 3.5 30 -1.1 72 72 NNW 7 11 30.16 1021 10 16.0934 0 0
4:35 pm 16:35 Mostly Cloudy 36 2.4 30 -1.2 77 77 NNW 5 7 30.18 1022 10 16.0934 0 0
4:55 pm 16:55 Mostly Cloudy 35 1.5 29 -1.5 81 81 NW 6 9 30.2 1023 10 16.0934 0 0
5:15 pm 17:15 Partly Cloudy 32 0.1 28 -2.4 83 83 NNW 7 11 30.22 1023 10 16.0934 0 0
5:35 pm 17:35 Clear 30 -1.3 27 -3 88 88 N 6 9 30.24 1024 10 16.0934 0 0
5:55 pm 17:55 Clear 29 -1.6 26 -3.1 90 90 N 5 7 30.24 1024 10 16.0934 0 0
6:15 pm 18:15 Clear 29 -1.8 26 -3.2 90 90 N 6 9 30.26 1025 10 16.0934 0 0
6:35 pm 18:35 Clear 29 -1.9 26 -3.3 90 90 N 3 6 30.27 1025 10 16.0934 0 0
6:55 pm 18:55 Clear 28 -2.1 26 -3.4 91 91 Calm 30.28 1025 10 16.0934 0 0
7:15 pm 19:15 Clear 27 -2.7 25 -3.7 93 93 S 5 7 30.29 1026 10 16.0934 0 0
7:35 pm 19:35 Clear 27 -3 25 -4 93 93 SSW 3 6 30.3 1026 10 16.0934 0 0
7:55 pm 19:55 Clear 27 -2.9 26 -3.5 96 96 Calm 30.3 1026 10 16.0934 0 0
8:15 pm 20:15 Clear 26 -3.6 24 -4.2 96 96 WSW 3 6 30.3 1026 10 16.0934 0 0
8:35 pm 20:35 Clear 26 -3.6 24 -4.4 94 94 SW 3 6 30.3 1026 10 16.0934 0 0
8:55 pm 20:55 Clear 26 -3.5 25 -4.1 96 96 W 3 6 30.31 1027 10 16.0934 0 0
9:15 pm 21:15 Clear 24 -4.2 24 -4.6 97 97 NNW 3 6 30.32 1027 10 16.0934 0 0
9:35 pm 21:35 Clear 24 -4.7 23 -5.2 96 96 Calm 30.33 1027 10 16.0934 0 0
9:55 pm 21:55 Clear 23 -4.8 23 -5.2 97 97 N 3 6 30.33 1027 10 16.0934 0 0
10:15 pm 22:15 Clear 22 -5.4 21 -5.9 96 96 Calm 30.33 1027 10 16.0934 0 0
10:35 pm 22:35 Clear 23 -5.1 22 -5.6 96 96 Calm 30.33 1027 10 16.0934 0 0
10:55 pm 22:55 Clear 22 -5.4 22 -5.8 97 97 Calm 30.33 1027 10 16.0934 0 0
11:15 pm 23:15 Clear 22 -5.5 21 -6 96 96 NW 3 6 30.33 1027 10 16.0934 0 0
11:35 pm 23:35 Clear 22 -5.8 21 -6.2 97 97 WNW 5 7 30.34 1027 10 16.0934 0 0
11:55 pm 23:55 Clear 22 -5.6 21 -6.1 96 96 WNW 6 9 30.33 1027 10 16.0934 0 0

Powered by AerisWeather